Regional Weather Roundup
Issued by NWS

Home | Current Version | Previous Version | Text Only | Print | Product List | Glossary Off
Versions: 1 2 3 4 5 6 7 8 9 10 11 12 13 14 15 16 17 18 19 20 21 22 23 24 25 26 27 28 29 30 31 32 33 34 35 36 37 38 39 40 41 42 43 44 45 46 47 48 49 50

000
ASUS43 KLSX 250907
RWRMO

WEATHER SUMMARY FOR MISSOURI
NATIONAL WEATHER SERVICE SPRINGFIELD MO
400 AM CDT THU AUG 25 2016

NOTE: "FAIR" INDICATES FEW OR NO CLOUDS BELOW 12,000 FEET WITH NO
       SIGNIFICANT WEATHER AND/OR OBSTRUCTIONS TO VISIBILITY.
       CURRENT SKY AND/OR WEATHER CONDITIONS ARE NOT AVAILABLE FOR
       CHILLICOTHE AND FARMINGTON.

MOZ001>031-035>038-043-044-053-054-251000-
...NORTHERN AND WESTERN MISSOURI...

CITY           SKY/WX    TMP DP  RH WIND       PRES   REMARKS
KANSAS CTY INT LGT RAIN  70  68  93 S3        30.05R FOG
KANSAS C DTWN  TSTM      72  70  93 SW12      30.06R FOG
LEE`S SUMMIT   LGT RAIN  70  69  97 W3        30.07R
ST JOSEPH      CLOUDY    70  68  93 NW5       30.05R
CHILLICOTHE      N/A     70  69  97 CALM      30.05R
KIRKSVILLE     CLOUDY    71  69  93 SW6       30.05R

$$
MOZ066>068-077>081-088>096-101>105-251000-
...SOUTHWEST MISSOURI...

CITY           SKY/WX    TMP DP  RH WIND       PRES   REMARKS
SPRINGFIELD    CLEAR     72  67  84 S8        30.09R
JOPLIN         MOCLDY    76  67  73 NW14      30.10R
BRANSON        CLEAR     72  66  83 CALM      30.12R

$$
MOZ032>034-039>042-045>050-055>058-069>072-251000-
...CENTRAL MISSOURI...

CITY           SKY/WX    TMP DP  RH WIND       PRES   REMARKS
COLUMBIA       CLEAR     69  67  93 CALM      30.06R
JEFFERSON CITY CLEAR     70  68  93 CALM      30.05S
ROLLA          CLEAR     71  69  93 SW5       30.07S
SEDALIA        PTCLDY    69  68  96 SE3       30.06S
WHITEMAN AFB   PTCLDY    69  69 100 CALM      30.04F
OSAGE BEACH    CLEAR     71  70  96 E3        30.08R

$$
MOZ051-052-059>065-251000-
...EAST CENTRAL MISSOURI...

CITY           SKY/WX    TMP DP  RH WIND       PRES   REMARKS
ST LOUIS INTL  PTCLDY    77  68  73 W3        30.06S
SPIRIT OF STL  CLEAR     74  70  87 NW5       30.04S
ST CHARLES     CLEAR     74  69  85 CALM      30.03F

$$
MOZ072>076-082>087-097>100-106>115-251000-
...SOUTH CENTRAL AND SOUTHEAST MISSOURI...

CITY           SKY/WX    TMP DP  RH WIND       PRES   REMARKS
CAPE GIRARDEAU CLEAR     74  72  93 S3        30.06S
FARMINGTON     CLEAR     72  70  93 CALM      30.09R
POPLAR BLUFF   CLEAR     74  73  97 CALM      30.06S FOG
WEST PLAINS    CLEAR     71  67  87 W3        30.13R

$$



USA.gov is the U.S. government's official web portal to all federal, state and local government web resources and services.